Year,Month,Day,Hour,Minute,Value (Times are PST for windspeed in km/hr)
2021,09,18,00,00,3.50
2021,09,18,00,01,1.90
2021,09,18,00,02,4.80
2021,09,18,00,03,4.00
2021,09,18,00,04,2.90
2021,09,18,00,05,1.60
2021,09,18,00,06,1.60
2021,09,18,00,07,2.50
2021,09,18,00,08,3.60
2021,09,18,00,09,1.30
2021,09,18,00,10,4.00
2021,09,18,00,11,4.00
2021,09,18,00,12,3.50
2021,09,18,00,13,4.90
2021,09,18,00,14,1.30
2021,09,18,00,15,1.30
2021,09,18,00,16,2.40
2021,09,18,00,17,0.60
2021,09,18,00,18,2.30
2021,09,18,00,19,4.10
2021,09,18,00,20,1.80
2021,09,18,00,21,1.40
2021,09,18,00,22,2.20
2021,09,18,00,23,4.90
2021,09,18,00,24,1.60
2021,09,18,00,25,2.30
2021,09,18,00,26,3.40
2021,09,18,00,27,2.60
2021,09,18,00,28,5.50
2021,09,18,00,29,3.60
2021,09,18,00,30,7.60
2021,09,18,00,31,5.10
2021,09,18,00,32,5.20
2021,09,18,00,33,6.50
2021,09,18,00,34,6.60
2021,09,18,00,35,4.50
2021,09,18,00,36,4.40
2021,09,18,00,37,4.30
2021,09,18,00,38,4.60
2021,09,18,00,39,5.20
2021,09,18,00,40,7.20
2021,09,18,00,41,5.10
2021,09,18,00,42,1.80
2021,09,18,00,43,3.80
2021,09,18,00,44,4.30
2021,09,18,00,45,6.70
2021,09,18,00,46,5.00
2021,09,18,00,47,4.80
2021,09,18,00,48,6.70
2021,09,18,00,49,6.50
2021,09,18,00,50,7.80
2021,09,18,00,51,7.20
2021,09,18,00,52,5.70
2021,09,18,00,53,8.20
2021,09,18,00,54,4.10
2021,09,18,00,55,6.40
2021,09,18,00,56,7.20
2021,09,18,00,57,10.10
2021,09,18,00,58,8.50
2021,09,18,00,59,8.20
2021,09,18,01,00,7.90
2021,09,18,01,01,7.20
2021,09,18,01,02,8.10
2021,09,18,01,03,7.30
2021,09,18,01,04,6.70
2021,09,18,01,05,6.30
2021,09,18,01,06,7.40
2021,09,18,01,07,9.30
2021,09,18,01,08,7.20
2021,09,18,01,09,10.00
2021,09,18,01,10,9.10
2021,09,18,01,11,11.00
2021,09,18,01,12,12.20
2021,09,18,01,13,10.00
2021,09,18,01,14,9.00
2021,09,18,01,15,7.90
2021,09,18,01,16,10.60
2021,09,18,01,17,8.80
2021,09,18,01,18,5.80
2021,09,18,01,19,8.30
2021,09,18,01,20,9.40
2021,09,18,01,21,7.90
2021,09,18,01,22,10.40
2021,09,18,01,23,7.20
2021,09,18,01,24,8.00
2021,09,18,01,25,7.70
2021,09,18,01,26,7.70
2021,09,18,01,27,9.60
2021,09,18,01,28,7.60
2021,09,18,01,29,8.10
2021,09,18,01,30,7.50
2021,09,18,01,31,8.10
2021,09,18,01,32,8.30
2021,09,18,01,33,9.20
2021,09,18,01,34,4.80
2021,09,18,01,35,6.00
2021,09,18,01,36,7.10
2021,09,18,01,37,6.90
2021,09,18,01,38,9.80
2021,09,18,01,39,10.00
2021,09,18,01,40,6.70
2021,09,18,01,41,6.00
2021,09,18,01,42,5.70
2021,09,18,01,43,4.40
2021,09,18,01,44,6.20
2021,09,18,01,45,6.20
2021,09,18,01,46,6.60
2021,09,18,01,47,5.80
2021,09,18,01,48,8.00
2021,09,18,01,49,6.10
2021,09,18,01,50,5.20
2021,09,18,01,51,2.40
2021,09,18,01,52,2.90
2021,09,18,01,53,3.40
2021,09,18,01,54,7.10
2021,09,18,01,55,7.30
2021,09,18,01,56,6.60
2021,09,18,01,57,7.50
2021,09,18,01,58,6.80
2021,09,18,01,59,6.10
2021,09,18,02,00,8.00
2021,09,18,02,01,9.20
2021,09,18,02,02,5.10
2021,09,18,02,03,4.80
2021,09,18,02,04,6.90
2021,09,18,02,05,8.20
2021,09,18,02,06,7.60
2021,09,18,02,07,7.40
2021,09,18,02,08,8.20
2021,09,18,02,09,8.40
2021,09,18,02,10,10.30
2021,09,18,02,11,9.50
2021,09,18,02,12,7.60
2021,09,18,02,13,11.20
2021,09,18,02,14,9.50
2021,09,18,02,15,11.40
2021,09,18,02,16,10.70
2021,09,18,02,17,9.40
2021,09,18,02,18,5.40
2021,09,18,02,19,5.70
2021,09,18,02,20,4.70
2021,09,18,02,21,7.60
2021,09,18,02,22,8.00
2021,09,18,02,23,8.70
2021,09,18,02,24,6.10
2021,09,18,02,25,6.30
2021,09,18,02,26,8.60
2021,09,18,02,27,3.80
2021,09,18,02,28,7.70
2021,09,18,02,29,7.20
2021,09,18,02,30,6.70
2021,09,18,02,31,7.50
2021,09,18,02,32,8.50
2021,09,18,02,33,7.80
2021,09,18,02,34,7.70
2021,09,18,02,35,6.30
2021,09,18,02,36,8.00
2021,09,18,02,37,6.90
2021,09,18,02,38,6.30
2021,09,18,02,39,5.60
2021,09,18,02,40,10.00
2021,09,18,02,41,8.00
2021,09,18,02,42,10.20
2021,09,18,02,43,4.70
2021,09,18,02,44,9.10
2021,09,18,02,45,7.30
2021,09,18,02,46,5.90
2021,09,18,02,47,4.40
2021,09,18,02,48,5.70
2021,09,18,02,49,7.00
2021,09,18,02,50,9.30
2021,09,18,02,51,7.10
2021,09,18,02,52,6.60
2021,09,18,02,53,6.70
2021,09,18,02,54,6.20
2021,09,18,02,55,8.60
2021,09,18,02,56,6.90
2021,09,18,02,57,5.40
2021,09,18,02,58,6.60
2021,09,18,02,59,9.20
2021,09,18,03,00,5.40
2021,09,18,03,01,3.70
2021,09,18,03,02,4.10
2021,09,18,03,03,3.30
2021,09,18,03,04,6.00
2021,09,18,03,05,5.30
2021,09,18,03,06,3.70
2021,09,18,03,07,5.20
2021,09,18,03,08,3.50
2021,09,18,03,09,7.80
2021,09,18,03,10,7.60
2021,09,18,03,11,7.00
2021,09,18,03,12,6.40
2021,09,18,03,13,7.10
2021,09,18,03,14,9.80
2021,09,18,03,15,5.30
2021,09,18,03,16,7.50
2021,09,18,03,17,6.90
2021,09,18,03,18,5.50
2021,09,18,03,19,2.60
2021,09,18,03,20,2.90
2021,09,18,03,21,5.20
2021,09,18,03,22,9.30
2021,09,18,03,23,6.40
2021,09,18,03,24,3.70
2021,09,18,03,25,4.50
2021,09,18,03,26,5.00
2021,09,18,03,27,4.50
2021,09,18,03,28,4.90
2021,09,18,03,29,7.80
2021,09,18,03,30,7.20
2021,09,18,03,31,6.30
2021,09,18,03,32,6.70
2021,09,18,03,33,8.20
2021,09,18,03,34,9.70
2021,09,18,03,35,8.20
2021,09,18,03,36,6.80
2021,09,18,03,37,5.90
2021,09,18,03,38,8.80
2021,09,18,03,39,9.50
2021,09,18,03,40,9.80
2021,09,18,03,41,8.90
2021,09,18,03,42,7.10
2021,09,18,03,43,8.10
2021,09,18,03,44,10.10
2021,09,18,03,45,10.00
2021,09,18,03,46,7.80
2021,09,18,03,47,8.70
2021,09,18,03,48,6.30
2021,09,18,03,49,7.30
2021,09,18,03,50,11.30
2021,09,18,03,51,12.90
2021,09,18,03,52,11.20
2021,09,18,03,53,9.50
2021,09,18,03,54,7.70
2021,09,18,03,55,10.80
2021,09,18,03,56,11.00
2021,09,18,03,57,11.40
2021,09,18,03,58,11.00
2021,09,18,03,59,9.00
2021,09,18,04,00,9.70
2021,09,18,04,01,10.60
2021,09,18,04,02,11.60
2021,09,18,04,03,9.80
2021,09,18,04,04,8.60
2021,09,18,04,05,7.60
2021,09,18,04,06,9.40
2021,09,18,04,07,11.00
2021,09,18,04,08,9.80
2021,09,18,04,09,8.20
2021,09,18,04,10,6.90
2021,09,18,04,11,8.20
2021,09,18,04,12,10.90
2021,09,18,04,13,12.70
2021,09,18,04,14,9.00
2021,09,18,04,15,7.30
2021,09,18,04,16,11.20
2021,09,18,04,17,11.40
2021,09,18,04,18,10.90
2021,09,18,04,19,12.30
2021,09,18,04,20,10.60
2021,09,18,04,21,9.90
2021,09,18,04,22,6.90
2021,09,18,04,23,8.70
2021,09,18,04,24,10.10
2021,09,18,04,25,8.60
2021,09,18,04,26,10.40
2021,09,18,04,27,9.90
2021,09,18,04,28,10.50
2021,09,18,04,29,10.00
2021,09,18,04,30,9.80
2021,09,18,04,31,10.10
2021,09,18,04,32,7.70
2021,09,18,04,33,9.20
2021,09,18,04,34,9.80
2021,09,18,04,35,10.80
2021,09,18,04,36,12.00
2021,09,18,04,37,10.30
2021,09,18,04,38,7.40
2021,09,18,04,39,6.60
2021,09,18,04,40,8.30
2021,09,18,04,41,7.90
2021,09,18,04,42,9.20
2021,09,18,04,43,8.20
2021,09,18,04,44,10.60
2021,09,18,04,45,10.90
2021,09,18,04,46,11.30
2021,09,18,04,47,9.50
2021,09,18,04,48,7.60
2021,09,18,04,49,6.90
2021,09,18,04,50,7.70
2021,09,18,04,51,9.40
2021,09,18,04,52,8.70
2021,09,18,04,53,9.40
2021,09,18,04,54,7.60
2021,09,18,04,55,9.10
2021,09,18,04,56,9.20
2021,09,18,04,57,9.70
2021,09,18,04,58,9.80
2021,09,18,04,59,8.20
2021,09,18,05,00,7.90
2021,09,18,05,01,7.80
2021,09,18,05,02,7.80
2021,09,18,05,03,8.80
2021,09,18,05,04,9.00
2021,09,18,05,05,9.30
2021,09,18,05,06,9.10
2021,09,18,05,07,8.10
2021,09,18,05,08,6.70
2021,09,18,05,09,8.00
2021,09,18,05,10,10.10
2021,09,18,05,11,9.70
2021,09,18,05,12,8.60
2021,09,18,05,13,8.30
2021,09,18,05,14,6.70
2021,09,18,05,15,7.60
2021,09,18,05,16,7.30
2021,09,18,05,17,8.60
2021,09,18,05,18,7.20
2021,09,18,05,19,7.80
2021,09,18,05,20,8.70
2021,09,18,05,21,8.60
2021,09,18,05,22,8.80
2021,09,18,05,23,9.10
2021,09,18,05,24,8.00
2021,09,18,05,25,10.70
2021,09,18,05,26,10.30
2021,09,18,05,27,10.30
2021,09,18,05,28,7.90
2021,09,18,05,29,9.60
2021,09,18,05,30,10.50
2021,09,18,05,31,7.80
2021,09,18,05,32,8.60
2021,09,18,05,33,9.00
2021,09,18,05,34,9.50
2021,09,18,05,35,11.40
2021,09,18,05,36,9.50
2021,09,18,05,37,9.80
2021,09,18,05,38,9.40
2021,09,18,05,39,8.70
2021,09,18,05,40,11.90
2021,09,18,05,41,11.40
2021,09,18,05,42,9.10
2021,09,18,05,43,12.10
2021,09,18,05,44,12.40
2021,09,18,05,45,9.20
2021,09,18,05,46,11.30
2021,09,18,05,47,12.80
2021,09,18,05,48,9.70
2021,09,18,05,49,8.30
2021,09,18,05,50,7.90
2021,09,18,05,51,11.00
2021,09,18,05,52,9.70
2021,09,18,05,53,6.20
2021,09,18,05,54,7.00
2021,09,18,05,55,10.40
2021,09,18,05,56,12.90
2021,09,18,05,57,12.40
2021,09,18,05,58,14.80
2021,09,18,05,59,11.70
2021,09,18,06,00,10.90
2021,09,18,06,01,10.00
2021,09,18,06,02,9.80
2021,09,18,06,03,11.30
2021,09,18,06,04,12.30
2021,09,18,06,05,7.60
2021,09,18,06,06,7.20
2021,09,18,06,07,7.10
2021,09,18,06,08,12.50
2021,09,18,06,09,12.50
2021,09,18,06,10,11.70
2021,09,18,06,11,11.90
2021,09,18,06,12,12.00
2021,09,18,06,13,9.50
2021,09,18,06,14,7.40
2021,09,18,06,15,5.00
2021,09,18,06,16,7.50
2021,09,18,06,17,4.80
2021,09,18,06,18,8.50
2021,09,18,06,19,9.80
2021,09,18,06,20,6.50
2021,09,18,06,21,5.40
2021,09,18,06,22,6.20
2021,09,18,06,23,6.60
2021,09,18,06,24,9.80
2021,09,18,06,25,4.80
2021,09,18,06,26,3.40
2021,09,18,06,27,4.20
2021,09,18,06,28,4.70
2021,09,18,06,29,3.00
2021,09,18,06,30,1.70
2021,09,18,06,31,2.40
2021,09,18,06,32,2.20
2021,09,18,06,33,3.40
2021,09,18,06,34,3.60
2021,09,18,06,35,3.30
2021,09,18,06,36,3.90
2021,09,18,06,37,7.10
2021,09,18,06,38,3.60
2021,09,18,06,39,3.30
2021,09,18,06,40,3.60
2021,09,18,06,41,1.80
2021,09,18,06,42,1.00
2021,09,18,06,43,2.10
2021,09,18,06,44,2.30
2021,09,18,06,45,2.60
2021,09,18,06,46,4.90
2021,09,18,06,47,2.80
2021,09,18,06,48,5.20
2021,09,18,06,49,5.70
2021,09,18,06,50,6.30
2021,09,18,06,51,7.50
2021,09,18,06,52,5.10
2021,09,18,06,53,6.90
2021,09,18,06,54,6.60
2021,09,18,06,55,6.30
2021,09,18,06,56,6.70
2021,09,18,06,57,7.40
2021,09,18,06,58,7.70
2021,09,18,06,59,8.20
2021,09,18,07,00,7.60
2021,09,18,07,01,8.30
2021,09,18,07,02,8.90
2021,09,18,07,03,10.10
2021,09,18,07,04,7.00
2021,09,18,07,05,10.00
2021,09,18,07,06,10.70
2021,09,18,07,07,11.00
2021,09,18,07,08,6.90
2021,09,18,07,09,9.70
2021,09,18,07,10,10.30
2021,09,18,07,11,10.70
2021,09,18,07,12,7.50
2021,09,18,07,13,7.70
2021,09,18,07,14,7.60
2021,09,18,07,15,5.10
2021,09,18,07,16,11.30
2021,09,18,07,17,10.70
2021,09,18,07,18,9.70
2021,09,18,07,19,8.90
2021,09,18,07,20,9.80
2021,09,18,07,21,8.90
2021,09,18,07,22,7.90
2021,09,18,07,23,8.70
2021,09,18,07,24,8.20
2021,09,18,07,25,5.00
2021,09,18,07,26,5.80
2021,09,18,07,27,7.10
2021,09,18,07,28,6.20
2021,09,18,07,29,4.20
2021,09,18,07,30,5.30
2021,09,18,07,31,6.90
2021,09,18,07,32,9.50
2021,09,18,07,33,9.70
2021,09,18,07,34,12.60
2021,09,18,07,35,8.80
2021,09,18,07,36,6.80
2021,09,18,07,37,6.40
2021,09,18,07,38,9.30
2021,09,18,07,39,6.50
2021,09,18,07,40,4.30
2021,09,18,07,41,4.20
2021,09,18,07,42,7.50
2021,09,18,07,43,6.70
2021,09,18,07,44,7.20
2021,09,18,07,45,8.50
2021,09,18,07,46,7.70
2021,09,18,07,47,6.40
2021,09,18,07,48,7.70
2021,09,18,07,49,8.70
2021,09,18,07,50,12.20
2021,09,18,07,51,6.70
2021,09,18,07,52,11.60
2021,09,18,07,53,10.70
2021,09,18,07,54,7.00
2021,09,18,07,55,5.20
2021,09,18,07,56,5.70
2021,09,18,07,57,8.30
2021,09,18,07,58,7.20
2021,09,18,07,59,6.90
2021,09,18,08,00,6.00
2021,09,18,08,01,3.40
2021,09,18,08,02,8.90
2021,09,18,08,03,7.50
2021,09,18,08,04,6.80
2021,09,18,08,05,3.60
2021,09,18,08,06,7.10
2021,09,18,08,07,6.50
2021,09,18,08,08,10.00
2021,09,18,08,09,5.10
2021,09,18,08,10,8.60
2021,09,18,08,11,8.80
2021,09,18,08,12,9.80
2021,09,18,08,13,12.00
2021,09,18,08,14,7.90
2021,09,18,08,15,10.40
2021,09,18,08,16,6.50
2021,09,18,08,17,6.90
2021,09,18,08,18,6.30
2021,09,18,08,19,7.10
2021,09,18,08,20,8.00
2021,09,18,08,21,6.20
2021,09,18,08,22,8.50
2021,09,18,08,23,9.20
2021,09,18,08,24,7.60
2021,09,18,08,25,6.90
2021,09,18,08,26,8.90
2021,09,18,08,27,7.20
2021,09,18,08,28,6.50
2021,09,18,08,29,10.40
2021,09,18,08,30,8.10
2021,09,18,08,31,10.60
2021,09,18,08,32,17.60
2021,09,18,08,33,17.60
2021,09,18,08,34,17.20
2021,09,18,08,35,20.30
2021,09,18,08,36,18.30
2021,09,18,08,37,17.00
2021,09,18,08,38,17.60
2021,09,18,08,39,14.80
2021,09,18,08,40,18.70
2021,09,18,08,41,19.20
2021,09,18,08,42,16.90
2021,09,18,08,43,15.70
2021,09,18,08,44,15.90
2021,09,18,08,45,16.70
2021,09,18,08,46,18.20
2021,09,18,08,47,19.50
2021,09,18,08,48,21.70
2021,09,18,08,49,22.50
2021,09,18,08,50,17.80
2021,09,18,08,51,22.70
2021,09,18,08,52,20.60
2021,09,18,08,53,23.90
2021,09,18,08,54,23.40
2021,09,18,08,55,23.20
2021,09,18,08,56,23.60
2021,09,18,08,57,24.40
2021,09,18,08,58,23.70
2021,09,18,08,59,24.30
2021,09,18,09,00,24.30
2021,09,18,09,01,24.80
2021,09,18,09,02,21.00
2021,09,18,09,03,23.40
2021,09,18,09,04,23.90
2021,09,18,09,05,24.00
2021,09,18,09,06,21.00
2021,09,18,09,07,22.50
2021,09,18,09,08,21.10
2021,09,18,09,09,18.40
2021,09,18,09,10,20.60
2021,09,18,09,11,18.80
2021,09,18,09,12,17.40
2021,09,18,09,13,18.10
2021,09,18,09,14,17.50
2021,09,18,09,15,17.10
2021,09,18,09,16,15.10
2021,09,18,09,17,13.50
2021,09,18,09,18,15.10
2021,09,18,09,19,17.00
2021,09,18,09,20,16.60
2021,09,18,09,21,17.40
2021,09,18,09,22,18.50
2021,09,18,09,23,17.80
2021,09,18,09,24,15.40
2021,09,18,09,25,19.50
2021,09,18,09,26,18.60
2021,09,18,09,27,19.20
2021,09,18,09,28,19.50
2021,09,18,09,29,18.10
2021,09,18,09,30,19.60
2021,09,18,09,31,17.00
2021,09,18,09,32,17.30
2021,09,18,09,33,18.00
2021,09,18,09,34,17.60
2021,09,18,09,35,16.20
2021,09,18,09,36,17.20
2021,09,18,09,37,15.80
2021,09,18,09,38,16.00
2021,09,18,09,39,18.80
2021,09,18,09,40,17.80
2021,09,18,09,41,18.80
2021,09,18,09,42,17.90
2021,09,18,09,43,15.70
2021,09,18,09,44,15.00
2021,09,18,09,45,14.70
2021,09,18,09,46,15.60
2021,09,18,09,47,14.50
2021,09,18,09,48,19.10
2021,09,18,09,49,16.30
2021,09,18,09,50,16.30
2021,09,18,09,51,16.00
2021,09,18,09,52,15.30
2021,09,18,09,53,14.40
2021,09,18,09,54,15.10
2021,09,18,09,55,14.30
2021,09,18,09,56,12.80
2021,09,18,09,57,12.60
2021,09,18,09,58,10.90
2021,09,18,09,59,13.10
2021,09,18,10,00,12.00
2021,09,18,10,01,8.80
2021,09,18,10,02,11.40
2021,09,18,10,03,8.20
2021,09,18,10,04,12.40
2021,09,18,10,05,18.20
2021,09,18,10,06,18.20
2021,09,18,10,07,19.20
2021,09,18,10,08,21.20
2021,09,18,10,09,19.70
2021,09,18,10,10,14.00
2021,09,18,10,11,16.60
2021,09,18,10,12,14.50
2021,09,18,10,13,17.00
2021,09,18,10,14,17.20
2021,09,18,10,15,19.60
2021,09,18,10,16,19.50
2021,09,18,10,17,19.60
2021,09,18,10,18,17.90
2021,09,18,10,19,19.60
2021,09,18,10,20,21.20
2021,09,18,10,21,17.00
2021,09,18,10,22,19.00
2021,09,18,10,23,22.30
2021,09,18,10,24,21.20
2021,09,18,10,25,18.90
2021,09,18,10,26,20.30
2021,09,18,10,27,16.40
2021,09,18,10,28,15.90
2021,09,18,10,29,15.50
2021,09,18,10,30,15.30
2021,09,18,10,31,16.60
2021,09,18,10,32,15.30
2021,09,18,10,33,17.30
2021,09,18,10,34,17.30
2021,09,18,10,35,15.90
2021,09,18,10,36,14.50
2021,09,18,10,37,13.30
2021,09,18,10,38,14.60
2021,09,18,10,39,12.30
2021,09,18,10,40,13.70
2021,09,18,10,41,13.90
2021,09,18,10,42,14.40
2021,09,18,10,43,14.00
2021,09,18,10,44,13.20
2021,09,18,10,45,13.70
2021,09,18,10,46,15.40
2021,09,18,10,47,16.50
2021,09,18,10,48,16.70
2021,09,18,10,49,14.10
2021,09,18,10,50,17.80
2021,09,18,10,51,19.10
2021,09,18,10,52,17.90
2021,09,18,10,53,19.10
2021,09,18,10,54,19.50
2021,09,18,10,55,18.10
2021,09,18,10,56,19.40
2021,09,18,10,57,19.70
2021,09,18,10,58,19.40
2021,09,18,10,59,17.70
2021,09,18,11,00,19.80
2021,09,18,11,01,22.60
2021,09,18,11,02,21.50
2021,09,18,11,03,19.10
2021,09,18,11,04,19.70
2021,09,18,11,05,20.70
2021,09,18,11,06,20.70
2021,09,18,11,07,20.60
2021,09,18,11,08,21.20
2021,09,18,11,09,20.00
2021,09,18,11,10,20.40
2021,09,18,11,11,23.10
2021,09,18,11,12,20.40
2021,09,18,11,13,20.60
2021,09,18,11,14,19.40
2021,09,18,11,15,18.40
2021,09,18,11,16,18.20
2021,09,18,11,17,18.90
2021,09,18,11,18,21.50
2021,09,18,11,19,20.10
2021,09,18,11,20,19.80
2021,09,18,11,21,20.40
2021,09,18,11,22,18.00
2021,09,18,11,23,18.80
2021,09,18,11,24,19.30
2021,09,18,11,25,18.70
2021,09,18,11,26,20.70
2021,09,18,11,27,20.90
2021,09,18,11,28,17.70
2021,09,18,11,29,21.60
2021,09,18,11,30,20.80
2021,09,18,11,31,20.80
2021,09,18,11,32,21.30
2021,09,18,11,33,21.80
2021,09,18,11,34,20.20
2021,09,18,11,35,21.50
2021,09,18,11,36,21.30
2021,09,18,11,37,22.90
2021,09,18,11,38,23.00
2021,09,18,11,39,22.10
2021,09,18,11,40,22.70
2021,09,18,11,41,21.40
2021,09,18,11,42,21.40
2021,09,18,11,43,24.10
2021,09,18,11,44,20.60
2021,09,18,11,45,21.40
2021,09,18,11,46,20.90
2021,09,18,11,47,18.40
2021,09,18,11,48,21.00
2021,09,18,11,49,22.60
2021,09,18,11,50,20.40
2021,09,18,11,51,23.20
2021,09,18,11,52,24.10
2021,09,18,11,53,22.20
2021,09,18,11,54,20.00
2021,09,18,11,55,21.00
2021,09,18,11,56,18.10
2021,09,18,11,57,18.40
2021,09,18,11,58,18.20
2021,09,18,11,59,18.90
2021,09,18,12,00,21.20
2021,09,18,12,01,21.90
2021,09,18,12,02,21.40
2021,09,18,12,03,18.90
2021,09,18,12,04,22.40
2021,09,18,12,05,19.00
2021,09,18,12,06,18.90
2021,09,18,12,07,18.30
2021,09,18,12,08,19.80
2021,09,18,12,09,18.20
2021,09,18,12,10,19.50
2021,09,18,12,11,21.50
2021,09,18,12,12,20.70
2021,09,18,12,13,21.80
2021,09,18,12,14,25.30
2021,09,18,12,15,26.10
2021,09,18,12,16,21.70
2021,09,18,12,17,17.80
2021,09,18,12,18,17.20
2021,09,18,12,19,17.20
2021,09,18,12,20,17.90
2021,09,18,12,21,20.60
2021,09,18,12,22,22.20
2021,09,18,12,23,21.20
2021,09,18,12,24,18.50
2021,09,18,12,25,18.30
2021,09,18,12,26,20.60
2021,09,18,12,27,20.20
2021,09,18,12,28,20.90
2021,09,18,12,29,21.00
2021,09,18,12,30,19.20
2021,09,18,12,31,18.50
2021,09,18,12,32,16.90
2021,09,18,12,33,18.80
2021,09,18,12,34,15.40
2021,09,18,12,35,19.40
2021,09,18,12,36,19.70
2021,09,18,12,37,19.50
2021,09,18,12,38,19.70
2021,09,18,12,39,17.90
2021,09,18,12,40,18.20
2021,09,18,12,41,20.00
2021,09,18,12,42,20.00
2021,09,18,12,43,17.50
2021,09,18,12,44,18.00
2021,09,18,12,45,16.00
2021,09,18,12,46,18.30
2021,09,18,12,47,13.10
2021,09,18,12,48,16.40
2021,09,18,12,49,15.30
2021,09,18,12,50,17.90
2021,09,18,12,51,22.40
2021,09,18,12,52,18.50
2021,09,18,12,53,19.20
2021,09,18,12,54,15.20
2021,09,18,12,55,19.70
2021,09,18,12,56,17.30
2021,09,18,12,57,17.10
2021,09,18,12,58,18.10
2021,09,18,12,59,17.30
2021,09,18,13,00,19.30
2021,09,18,13,01,17.90
2021,09,18,13,02,21.00
2021,09,18,13,03,21.00
2021,09,18,13,04,21.00
2021,09,18,13,05,18.50
2021,09,18,13,06,19.70
2021,09,18,13,07,19.40
2021,09,18,13,08,21.60
2021,09,18,13,09,21.20
2021,09,18,13,10,23.10
2021,09,18,13,11,21.70
2021,09,18,13,12,22.80
2021,09,18,13,13,21.20
2021,09,18,13,14,18.80
2021,09,18,13,15,19.00
2021,09,18,13,16,18.20
2021,09,18,13,17,16.50
2021,09,18,13,18,17.00
2021,09,18,13,19,15.70
2021,09,18,13,20,17.90
2021,09,18,13,21,14.20
2021,09,18,13,22,14.40
2021,09,18,13,23,12.80
2021,09,18,13,24,13.50
2021,09,18,13,25,13.80
2021,09,18,13,26,14.50
2021,09,18,13,27,17.00
2021,09,18,13,28,16.60
2021,09,18,13,29,17.50
2021,09,18,13,30,16.40
2021,09,18,13,31,15.60
2021,09,18,13,32,14.40
2021,09,18,13,33,14.70
2021,09,18,13,34,12.40
2021,09,18,13,35,12.30
2021,09,18,13,36,13.70
2021,09,18,13,37,12.80
2021,09,18,13,38,10.10
2021,09,18,13,39,11.30
2021,09,18,13,40,11.00
2021,09,18,13,41,9.50
2021,09,18,13,42,11.30
2021,09,18,13,43,10.10
2021,09,18,13,44,8.20
2021,09,18,13,45,11.80
2021,09,18,13,46,13.30
2021,09,18,13,47,14.40
2021,09,18,13,48,11.30
2021,09,18,13,49,15.20
2021,09,18,13,50,16.20
2021,09,18,13,51,15.50
2021,09,18,13,52,15.00
2021,09,18,13,53,13.20
2021,09,18,13,54,12.80
2021,09,18,13,55,12.90
2021,09,18,13,56,11.30
2021,09,18,13,57,9.70
2021,09,18,13,58,11.20
2021,09,18,13,59,8.80
2021,09,18,14,00,15.50
2021,09,18,14,01,14.40
2021,09,18,14,02,18.40
2021,09,18,14,03,20.20
2021,09,18,14,04,20.10
2021,09,18,14,05,21.00
2021,09,18,14,06,20.70
2021,09,18,14,07,19.10
2021,09,18,14,08,18.20
2021,09,18,14,09,16.80
2021,09,18,14,10,17.10
2021,09,18,14,11,18.90
2021,09,18,14,12,20.80
2021,09,18,14,13,20.40
2021,09,18,14,14,17.60
2021,09,18,14,15,17.10
2021,09,18,14,16,16.60
2021,09,18,14,17,18.70
2021,09,18,14,18,17.90
2021,09,18,14,19,16.70
2021,09,18,14,20,15.90
2021,09,18,14,21,15.30
2021,09,18,14,22,15.60
2021,09,18,14,23,16.10
2021,09,18,14,24,15.00
2021,09,18,14,25,14.90
2021,09,18,14,26,16.50
2021,09,18,14,27,14.70
2021,09,18,14,28,13.60
2021,09,18,14,29,15.80
2021,09,18,14,30,16.70
2021,09,18,14,31,17.50
2021,09,18,14,32,18.20
2021,09,18,14,33,17.90
2021,09,18,14,34,18.40
2021,09,18,14,35,17.50
2021,09,18,14,36,16.30
2021,09,18,14,37,16.20
2021,09,18,14,38,17.40
2021,09,18,14,39,17.20
2021,09,18,14,40,17.00
2021,09,18,14,41,16.50
2021,09,18,14,42,15.90
2021,09,18,14,43,17.00
2021,09,18,14,44,15.00
2021,09,18,14,45,14.50
2021,09,18,14,46,12.40
2021,09,18,14,47,10.60
2021,09,18,14,48,10.60
2021,09,18,14,49,10.30
2021,09,18,14,50,9.70
2021,09,18,14,51,9.40
2021,09,18,14,52,10.30
2021,09,18,14,53,9.00
2021,09,18,14,54,10.70
2021,09,18,14,55,13.10
2021,09,18,14,56,14.90
2021,09,18,14,57,13.50
2021,09,18,14,58,15.10
2021,09,18,14,59,14.90
2021,09,18,15,00,15.00
2021,09,18,15,01,17.60
2021,09,18,15,02,16.50
2021,09,18,15,03,17.00
2021,09,18,15,04,14.30
2021,09,18,15,05,15.60
2021,09,18,15,06,18.20
2021,09,18,15,07,19.10
2021,09,18,15,08,21.60
2021,09,18,15,09,21.10
2021,09,18,15,10,19.80
2021,09,18,15,11,17.60
2021,09,18,15,12,16.60
2021,09,18,15,13,15.20
2021,09,18,15,14,16.10
2021,09,18,15,15,16.60
2021,09,18,15,16,15.40
2021,09,18,15,17,15.90
2021,09,18,15,18,16.40
2021,09,18,15,19,16.10
2021,09,18,15,20,17.10
2021,09,18,15,21,15.60
2021,09,18,15,22,15.70
2021,09,18,15,23,11.60
2021,09,18,15,24,11.30
2021,09,18,15,25,12.00
2021,09,18,15,26,14.50
2021,09,18,15,27,16.10
2021,09,18,15,28,17.30
2021,09,18,15,29,15.00
2021,09,18,15,30,10.90
2021,09,18,15,31,13.60
2021,09,18,15,32,14.30
2021,09,18,15,33,13.80
2021,09,18,15,34,14.70
2021,09,18,15,35,14.50
2021,09,18,15,36,13.30
2021,09,18,15,37,14.00
2021,09,18,15,38,14.50
2021,09,18,15,39,13.50
2021,09,18,15,40,13.50
2021,09,18,15,41,13.50
2021,09,18,15,42,12.10
2021,09,18,15,43,15.90
2021,09,18,15,44,11.90
2021,09,18,15,45,12.10
2021,09,18,15,46,15.30
2021,09,18,15,47,15.60
2021,09,18,15,48,13.60
2021,09,18,15,49,14.50
2021,09,18,15,50,14.80
2021,09,18,15,51,15.10
2021,09,18,15,52,13.80
2021,09,18,15,53,15.40
2021,09,18,15,54,13.90
2021,09,18,15,55,11.30
2021,09,18,15,56,13.50
2021,09,18,15,57,13.20
2021,09,18,15,58,13.20
2021,09,18,15,59,13.70
2021,09,18,16,00,12.50
2021,09,18,16,01,11.90
2021,09,18,16,02,11.40
2021,09,18,16,03,12.00
2021,09,18,16,04,11.50
2021,09,18,16,05,11.30
2021,09,18,16,06,11.80
2021,09,18,16,07,11.30
2021,09,18,16,08,10.00
2021,09,18,16,09,11.90
2021,09,18,16,10,11.10
2021,09,18,16,11,10.70
2021,09,18,16,12,9.60
2021,09,18,16,13,10.50
2021,09,18,16,14,10.30
2021,09,18,16,15,10.10
2021,09,18,16,16,10.10
2021,09,18,16,17,8.90
2021,09,18,16,18,10.90
2021,09,18,16,19,11.40
2021,09,18,16,20,9.50
2021,09,18,16,21,8.70
2021,09,18,16,22,10.80
2021,09,18,16,23,9.50
2021,09,18,16,24,8.70
2021,09,18,16,25,9.40
2021,09,18,16,26,8.80
2021,09,18,16,27,8.30
2021,09,18,16,28,6.30
2021,09,18,16,29,6.40
2021,09,18,16,30,6.40
2021,09,18,16,31,6.60
2021,09,18,16,32,5.10
2021,09,18,16,33,5.40
2021,09,18,16,34,2.90
2021,09,18,16,35,3.10
2021,09,18,16,36,3.30
2021,09,18,16,37,4.50
2021,09,18,16,38,3.90
2021,09,18,16,39,2.90
2021,09,18,16,40,2.00
2021,09,18,16,41,1.90
2021,09,18,16,42,2.40
2021,09,18,16,43,2.60
2021,09,18,16,44,2.60
2021,09,18,16,45,2.00
2021,09,18,16,46,5.30
2021,09,18,16,47,13.20
2021,09,18,16,48,15.90
2021,09,18,16,49,12.90
2021,09,18,16,50,16.30
2021,09,18,16,51,19.00
2021,09,18,16,52,14.30
2021,09,18,16,53,10.50
2021,09,18,16,54,6.50
2021,09,18,16,55,4.50
2021,09,18,16,56,5.60
2021,09,18,16,57,5.60
2021,09,18,16,58,9.10
2021,09,18,16,59,11.30
2021,09,18,17,00,10.30
2021,09,18,17,01,8.50
2021,09,18,17,02,7.40
2021,09,18,17,03,4.30
2021,09,18,17,04,4.30
2021,09,18,17,05,4.90
2021,09,18,17,06,4.80
2021,09,18,17,07,3.50
2021,09,18,17,08,2.00
2021,09,18,17,09,2.40
2021,09,18,17,10,5.90
2021,09,18,17,11,4.80
2021,09,18,17,12,2.70
2021,09,18,17,13,4.40
2021,09,18,17,14,3.40
2021,09,18,17,15,2.70
2021,09,18,17,16,1.30
2021,09,18,17,17,2.20
2021,09,18,17,18,2.10
2021,09,18,17,19,4.30
2021,09,18,17,20,3.70
2021,09,18,17,21,5.00
2021,09,18,17,22,7.20
2021,09,18,17,23,6.90
2021,09,18,17,24,4.60
2021,09,18,17,25,6.20
2021,09,18,17,26,7.40
2021,09,18,17,27,9.30
2021,09,18,17,28,9.70
2021,09,18,17,29,8.10
2021,09,18,17,30,8.50
2021,09,18,17,31,6.80
2021,09,18,17,32,6.60
2021,09,18,17,33,7.10
2021,09,18,17,34,9.90
2021,09,18,17,35,15.30
2021,09,18,17,36,12.40
2021,09,18,17,37,8.60
2021,09,18,17,38,11.40
2021,09,18,17,39,15.90
2021,09,18,17,40,13.60
2021,09,18,17,41,15.70